Weather History for Jacksonville Craig, FL

Change the Weather History Date:

Sunday, March 17, 2013

  Actual Average Record
Temperature  
Mean Temperature 62 °F -  
Max Temperature 79 °F 70 °F 84 °F (2002)
Min Temperature 46 °F 52 °F 42 °F (1999)
Degree Days  
Heating Degree Days 4    
Growing Degree Days 12 (Base 50)    
Moisture  
Dew Point 45 °F    
Average Humidity 53    
Maximum Humidity 86    
Minimum Humidity 25    
Precipitation  
Precipitation 0.00 in - - ()
Sea Level Pressure  
Sea Level Pressure 30.07 in    
Wind  
Wind Speed 6 mph (SSW)    
Max Wind Speed 13 mph    
Max Gust Speed 21 mph    
Visibility 10 miles    
Events      
Averages and records for this station are not official NWS values.
T = Trace of Precipitation, MM = Missing Value Source: NWS Daily Summary

Daily Weather History Graph

Daily Weather History Graph

Search for Another Location

Airport:

Trip Planner

Search our weather history database for the weather conditions in past years. The results will help you decide how hot, cold, wet, or windy it might be!

Date:

Astronomy

Mar. 17, 2013 Rise Set
Actual Time 7:33 AM EDT 7:35 PM EDT
Civil Twilight 7:09 AM EDT 7:59 PM EDT
Nautical Twilight 6:41 AM EDT 8:27 PM EDT
Astronomical Twilight 6:13 AM EDT 8:55 PM EDT
Moon 11:07 AM EDT (3/17) 12:20 AM EDT (3/17)
Length of Visible Light 12h 50m
Length of Day
12h 02m
Waxing Crescent, 31% of the Moon is Illuminated
Mar 17
Waxing Crescent
Mar 19
First Quarter
Mar 27
Full
Apr 3
Last Quarter
Apr 10
New

Hourly Weather History & Observations

Time (EDT) Temp. Dew Point Humidity Pressure Visibility Wind Dir Wind Speed Gust Speed Precip Events Conditions
12:53 AM 62.1 °F 41.0 °F 46% 30.09 in 10.0 mi WSW 6.9 mph - N/A   Clear
1:53 AM 61.0 °F 39.9 °F 46% 30.08 in 10.0 mi West 5.8 mph - N/A   Clear
2:53 AM 60.1 °F 39.9 °F 47% 30.07 in 10.0 mi West 5.8 mph - N/A   Clear
3:53 AM 57.0 °F 41.0 °F 55% 30.06 in 10.0 mi WSW 5.8 mph - N/A   Clear
4:53 AM 48.9 °F 42.1 °F 77% 30.06 in 10.0 mi NNW 3.5 mph - N/A   Clear
5:53 AM 48.9 °F 42.1 °F 77% 30.07 in 10.0 mi Calm Calm - N/A   Clear
6:53 AM 48.0 °F 42.1 °F 80% 30.08 in 10.0 mi Calm Calm - N/A   Clear
7:53 AM 46.9 °F 43.0 °F 86% 30.09 in 10.0 mi Calm Calm - N/A   Clear
8:53 AM 55.9 °F 46.9 °F 72% 30.12 in 10.0 mi SSW 6.9 mph - N/A   Clear
9:53 AM 63.0 °F 50.0 °F 63% 30.12 in 10.0 mi SW 11.5 mph - N/A   Clear
10:53 AM 69.1 °F 50.0 °F 51% 30.13 in 10.0 mi SW 10.4 mph - N/A   Clear
11:53 AM 73.0 °F 44.1 °F 35% 30.12 in 10.0 mi SSW 10.4 mph - N/A   Clear
12:53 PM 75.0 °F 39.0 °F 27% 30.10 in 10.0 mi SSW 12.7 mph 20.7 mph N/A   Clear
1:53 PM 75.9 °F 39.0 °F 26% 30.07 in 10.0 mi South 6.9 mph - N/A   Clear
2:53 PM 75.0 °F 37.0 °F 25% 30.04 in 10.0 mi SSW 9.2 mph - N/A   Clear
3:53 PM 77.0 °F 39.9 °F 26% 30.01 in 10.0 mi Variable 6.9 mph - N/A   Clear
4:53 PM 75.9 °F 39.9 °F 27% 30.00 in 10.0 mi South 6.9 mph - N/A   Clear
5:53 PM 73.0 °F 51.1 °F 46% 30.01 in 10.0 mi SE 6.9 mph - N/A   Clear
6:53 PM 71.1 °F 52.0 °F 51% 30.01 in 10.0 mi SE 5.8 mph - N/A   Clear
7:53 PM 70.0 °F 53.1 °F 55% 30.03 in 10.0 mi SE 4.6 mph - N/A   Mostly Cloudy
8:53 PM 68.0 °F 55.0 °F 63% 30.05 in 10.0 mi South 5.8 mph - N/A   Overcast
9:53 PM 66.9 °F 54.0 °F 63% 30.05 in 10.0 mi South 3.5 mph - N/A   Clear
10:53 PM 66.0 °F 54.0 °F 65% 30.06 in 10.0 mi South 4.6 mph - 0.00 in   Mostly Cloudy
11:53 PM 64.9 °F 53.1 °F 65% 30.07 in 10.0 mi South 3.5 mph - N/A   Scattered Clouds